Volver al catálogo

STARLINK-5308

ActivoComunicacionesVLEO
NORAD 55300·PAYLOAD·🇺🇸 United States

Lanzado Jan 19, 2023 desde Vandenberg Space Force Base

Loading…

Próximos Pases (próximas 24 horas)

TLE

ActualizadoSource: CelesTrak SupGP

Época: Sep 14, 2026, 21:08 UTC

1 55300C 23010AH  26257.88104167  .00069450  00000+0  58206-2 0  2579
2 55300  69.9993 267.2649 0003632 266.7549  46.1302 14.98291850    13

Sigue STARLINK-5308 en tiempo real con AllMySat

Download on the App Store